User: anonymous   Login
Location: Unspecified
(0.0000°N, 0.0000°E)
Time: 18:23:22
(UTC+00:00)
Language:

YAOGAN 22 - Orbit

View from above orbital plane
View from above orbital plane
View from above satellite
View from above satellite

Ground track
Ground track

The orbit is defined by the following mean orbital elements,

1 40275U          26145.44642007 +.00000000 +00000-0 +11979-3 0 00006
2 40275 100.7694 296.3446 0005875 238.3069 121.7470 13.15530512    05
Epoch (UTC): 25 May 2026 10:42:50
Eccentricity: 0.0005875
inclination: 100.7694°
perigee height: 1197 km
apogee height: 1206 km
right ascension of ascending node: 296.3446°
argument of perigee: 238.3069°
revolutions per day: 13.15530512
mean anomaly at epoch: 121.7470°

The dashed part of the orbit path shows where the satellite is in the earth's shadow,  

DLR